Time,TemperatureF,DewpointF,PressureIn,WindDirection,WindDirectionDegrees,WindSpeedMPH,WindSpeedGustMPH,Humidity,HourlyPrecipIn,Conditions,Clouds,dailyrainin,SoftwareType,DateUTC
2013-07-26 00:02:00,58.0,41.0,-100.00,North,-999,-999.0,-999.0,54,-99.99,,,-99.99,,2013-07-26 07:02:00,
2013-07-26 00:22:00,58.0,42.0,-100.00,North,-999,-999.0,-999.0,55,-99.99,,,-99.99,,2013-07-26 07:22:00,
2013-07-26 00:32:00,58.0,42.0,-100.00,North,-999,-999.0,-999.0,56,-99.99,,,-99.99,,2013-07-26 07:32:00,
2013-07-26 02:52:00,56.0,33.0,-100.00,North,-999,-999.0,-999.0,41,-99.99,,,-99.99,,2013-07-26 09:52:00,
2013-07-26 03:32:00,56.0,29.0,-100.00,North,-999,-999.0,-999.0,35,-99.99,,,-99.99,,2013-07-26 10:32:00,
2013-07-26 03:42:00,56.0,28.0,-100.00,North,-999,-999.0,-999.0,33,-99.99,,,-99.99,,2013-07-26 10:42:00,
2013-07-26 03:52:00,56.0,28.0,-100.00,North,-999,-999.0,-999.0,33,-99.99,,,-99.99,,2013-07-26 10:52:00,
2013-07-26 04:02:00,57.0,28.0,-100.00,North,-999,-999.0,-999.0,32,-99.99,,,-99.99,,2013-07-26 11:02:00,
2013-07-26 04:12:00,57.0,28.0,-100.00,North,-999,-999.0,-999.0,32,-99.99,,,-99.99,,2013-07-26 11:12:00,
2013-07-26 04:22:00,57.0,28.0,-100.00,North,-999,-999.0,-999.0,32,-99.99,,,-99.99,,2013-07-26 11:22:00,
2013-07-26 04:32:00,57.0,28.0,-100.00,North,-999,-999.0,-999.0,32,-99.99,,,-99.99,,2013-07-26 11:32:00,
2013-07-26 04:43:00,56.0,28.0,-100.00,North,-999,-999.0,-999.0,33,-99.99,,,-99.99,,2013-07-26 11:43:00,
2013-07-26 04:52:00,56.0,28.0,-100.00,North,-999,-999.0,-999.0,33,-99.99,,,-99.99,,2013-07-26 11:52:00,
2013-07-26 05:12:00,56.0,27.0,-100.00,North,-999,-999.0,-999.0,32,-99.99,,,-99.99,,2013-07-26 12:12:00,
2013-07-26 05:22:00,57.0,26.0,-100.00,North,-999,-999.0,-999.0,30,-99.99,,,-99.99,,2013-07-26 12:22:00,
2013-07-26 05:33:00,56.0,25.0,-100.00,North,-999,-999.0,-999.0,30,-99.99,,,-99.99,,2013-07-26 12:33:00,
2013-07-26 05:43:00,56.0,25.0,-100.00,North,-999,-999.0,-999.0,29,-99.99,,,-99.99,,2013-07-26 12:43:00,
2013-07-26 05:53:00,56.0,25.0,-100.00,North,-999,-999.0,-999.0,29,-99.99,,,-99.99,,2013-07-26 12:53:00,
2013-07-26 06:22:00,56.0,24.0,-100.00,North,-999,-999.0,-999.0,28,-99.99,,,-99.99,,2013-07-26 13:22:00,
2013-07-26 06:43:00,56.0,26.0,-100.00,North,-999,-999.0,-999.0,31,-99.99,,,-99.99,,2013-07-26 13:43:00,
2013-07-26 06:53:00,56.0,26.0,-100.00,North,-999,-999.0,-999.0,31,-99.99,,,-99.99,,2013-07-26 13:53:00,
2013-07-26 07:22:00,56.0,28.0,-100.00,North,-999,-999.0,-999.0,34,-99.99,,,-99.99,,2013-07-26 14:22:00,
2013-07-26 07:43:00,56.0,32.0,-100.00,North,-999,-999.0,-999.0,39,-99.99,,,-99.99,,2013-07-26 14:43:00,
2013-07-26 07:53:00,56.0,32.0,-100.00,North,-999,-999.0,-999.0,39,-99.99,,,-99.99,,2013-07-26 14:53:00,
2013-07-26 08:12:00,57.0,33.0,-100.00,North,-999,-999.0,-999.0,40,-99.99,,,-99.99,,2013-07-26 15:12:00,
2013-07-26 08:22:00,59.0,35.0,-100.00,North,-999,-999.0,-999.0,41,-99.99,,,-99.99,,2013-07-26 15:22:00,
2013-07-26 08:53:00,62.0,33.0,-100.00,North,-999,-999.0,-999.0,33,-99.99,,,-99.99,,2013-07-26 15:53:00,
2013-07-26 09:14:00,64.0,34.0,-100.00,North,-999,-999.0,-999.0,33,-99.99,,,-99.99,,2013-07-26 16:14:00,
2013-07-26 09:22:00,66.0,27.0,-100.00,North,-999,-999.0,-999.0,23,-99.99,,,-99.99,,2013-07-26 16:22:00,
2013-07-26 09:32:00,66.0,27.0,-100.00,North,-999,-999.0,-999.0,23,-99.99,,,-99.99,,2013-07-26 16:32:00,
2013-07-26 09:43:00,69.0,29.0,-100.00,North,-999,-999.0,-999.0,22,-99.99,,,-99.99,,2013-07-26 16:43:00,
2013-07-26 09:54:00,69.0,29.0,-100.00,North,-999,-999.0,-999.0,22,-99.99,,,-99.99,,2013-07-26 16:54:00,
2013-07-26 10:02:00,70.0,31.0,-100.00,North,-999,-999.0,-999.0,23,-99.99,,,-99.99,,2013-07-26 17:02:00,
2013-07-26 10:12:00,70.0,31.0,-100.00,North,-999,-999.0,-999.0,23,-99.99,,,-99.99,,2013-07-26 17:12:00,
2013-07-26 10:22:00,71.0,34.0,-100.00,North,-999,-999.0,-999.0,25,-99.99,,,-99.99,,2013-07-26 17:22:00,
2013-07-26 10:33:00,72.0,36.0,-100.00,North,-999,-999.0,-999.0,26,-99.99,,,-99.99,,2013-07-26 17:33:00,
2013-07-26 10:43:00,74.0,34.0,-100.00,North,-999,-999.0,-999.0,23,-99.99,,,-99.99,,2013-07-26 17:43:00,
2013-07-26 10:53:00,74.0,34.0,-100.00,North,-999,-999.0,-999.0,23,-99.99,,,-99.99,,2013-07-26 17:53:00,
2013-07-26 11:02:00,75.0,35.0,-100.00,North,-999,-999.0,-999.0,23,-99.99,,,-99.99,,2013-07-26 18:02:00,
2013-07-26 11:12:00,75.0,35.0,-100.00,North,-999,-999.0,-999.0,23,-99.99,,,-99.99,,2013-07-26 18:12:00,
2013-07-26 11:22:00,77.0,34.0,-100.00,North,-999,-999.0,-999.0,21,-99.99,,,-99.99,,2013-07-26 18:22:00,
2013-07-26 11:33:00,77.0,34.0,-100.00,North,-999,-999.0,-999.0,21,-99.99,,,-99.99,,2013-07-26 18:33:00,
2013-07-26 11:52:00,77.0,31.0,-100.00,North,-999,-999.0,-999.0,18,-99.99,,,-99.99,,2013-07-26 18:52:00,
2013-07-26 12:02:00,79.0,29.0,-100.00,North,-999,-999.0,-999.0,16,-99.99,,,-99.99,,2013-07-26 19:02:00,
2013-07-26 12:12:00,79.0,29.0,-100.00,North,-999,-999.0,-999.0,16,-99.99,,,-99.99,,2013-07-26 19:12:00,
2013-07-26 12:22:00,80.0,25.0,-100.00,North,-999,-999.0,-999.0,13,-99.99,,,-99.99,,2013-07-26 19:22:00,
2013-07-26 12:32:00,80.0,25.0,-100.00,North,-999,-999.0,-999.0,13,-99.99,,,-99.99,,2013-07-26 19:32:00,
2013-07-26 12:43:00,81.0,24.0,-100.00,North,-999,-999.0,-999.0,12,-99.99,,,-99.99,,2013-07-26 19:43:00,
2013-07-26 12:52:00,81.0,24.0,-100.00,North,-999,-999.0,-999.0,12,-99.99,,,-99.99,,2013-07-26 19:52:00,
2013-07-26 13:22:00,80.0,23.0,-100.00,North,-999,-999.0,-999.0,12,-99.99,,,-99.99,,2013-07-26 20:22:00,
2013-07-26 13:32:00,81.0,19.0,-100.00,North,-999,-999.0,-999.0,10,-99.99,,,-99.99,,2013-07-26 20:32:00,
2013-07-26 15:32:00,81.0,22.0,-100.00,North,-999,-999.0,-999.0,11,-99.99,,,-99.99,,2013-07-26 22:32:00,
2013-07-26 15:43:00,81.0,24.0,-100.00,North,-999,-999.0,-999.0,12,-99.99,,,-99.99,,2013-07-26 22:43:00,
2013-07-26 15:53:00,81.0,24.0,-100.00,North,-999,-999.0,-999.0,12,-99.99,,,-99.99,,2013-07-26 22:53:00,
2013-07-26 16:02:00,81.0,27.0,-100.00,North,-999,-999.0,-999.0,14,-99.99,,,-99.99,,2013-07-26 23:02:00,
2013-07-26 16:12:00,81.0,27.0,-100.00,North,-999,-999.0,-999.0,14,-99.99,,,-99.99,,2013-07-26 23:12:00,
2013-07-26 16:22:00,80.0,30.0,-100.00,North,-999,-999.0,-999.0,16,-99.99,,,-99.99,,2013-07-26 23:22:00,
2013-07-26 16:32:00,80.0,30.0,-100.00,North,-999,-999.0,-999.0,16,-99.99,,,-99.99,,2013-07-26 23:32:00,
2013-07-26 16:53:00,79.0,32.0,-100.00,North,-999,-999.0,-999.0,18,-99.99,,,-99.99,,2013-07-26 23:53:00,
2013-07-26 17:22:00,77.0,36.0,-100.00,North,-999,-999.0,-999.0,22,-99.99,,,-99.99,,2013-07-27 00:22:00,
2013-07-26 17:32:00,76.0,36.0,-100.00,North,-999,-999.0,-999.0,24,-99.99,,,-99.99,,2013-07-27 00:32:00,
2013-07-26 17:53:00,75.0,38.0,-100.00,North,-999,-999.0,-999.0,26,-99.99,,,-99.99,,2013-07-27 00:53:00,
2013-07-26 18:02:00,75.0,38.0,-100.00,North,-999,-999.0,-999.0,26,-99.99,,,-99.99,,2013-07-27 01:02:00,
2013-07-26 18:12:00,75.0,38.0,-100.00,North,-999,-999.0,-999.0,26,-99.99,,,-99.99,,2013-07-27 01:12:00,
2013-07-26 18:22:00,75.0,37.0,-100.00,North,-999,-999.0,-999.0,25,-99.99,,,-99.99,,2013-07-27 01:22:00,
2013-07-26 18:32:00,74.0,37.0,-100.00,North,-999,-999.0,-999.0,26,-99.99,,,-99.99,,2013-07-27 01:32:00,
2013-07-26 18:43:00,73.0,35.0,-100.00,North,-999,-999.0,-999.0,25,-99.99,,,-99.99,,2013-07-27 01:43:00,
2013-07-26 18:53:00,73.0,35.0,-100.00,North,-999,-999.0,-999.0,25,-99.99,,,-99.99,,2013-07-27 01:53:00,
2013-07-26 19:02:00,73.0,35.0,-100.00,North,-999,-999.0,-999.0,25,-99.99,,,-99.99,,2013-07-27 02:02:00,
2013-07-26 19:22:00,72.0,37.0,-100.00,North,-999,-999.0,-999.0,28,-99.99,,,-99.99,,2013-07-27 02:22:00,
2013-07-26 19:32:00,71.0,37.0,-100.00,North,-999,-999.0,-999.0,29,-99.99,,,-99.99,,2013-07-27 02:32:00,
2013-07-26 19:53:00,71.0,39.0,-100.00,North,-999,-999.0,-999.0,32,-99.99,,,-99.99,,2013-07-27 02:53:00,
2013-07-26 20:02:00,70.0,41.0,-100.00,North,-999,-999.0,-999.0,35,-99.99,,,-99.99,,2013-07-27 03:02:00,
2013-07-26 20:12:00,70.0,41.0,-100.00,North,-999,-999.0,-999.0,35,-99.99,,,-99.99,,2013-07-27 03:12:00,
2013-07-26 20:22:00,69.0,43.0,-100.00,North,-999,-999.0,-999.0,39,-99.99,,,-99.99,,2013-07-27 03:22:00,
2013-07-26 20:32:00,69.0,43.0,-100.00,North,-999,-999.0,-999.0,39,-99.99,,,-99.99,,2013-07-27 03:32:00,
2013-07-26 20:44:00,67.0,47.0,-100.00,North,-999,-999.0,-999.0,49,-99.99,,,-99.99,,2013-07-27 03:44:00,
2013-07-26 20:52:00,67.0,47.0,-100.00,North,-999,-999.0,-999.0,49,-99.99,,,-99.99,,2013-07-27 03:52:00,
2013-07-26 21:22:00,65.0,50.0,-100.00,North,-999,-999.0,-999.0,60,-99.99,,,-99.99,,2013-07-27 04:22:00,
2013-07-26 22:22:00,61.0,50.0,-100.00,North,-999,-999.0,-999.0,65,-99.99,,,-99.99,,2013-07-27 05:22:00,
2013-07-26 22:32:00,61.0,50.0,-100.00,North,-999,-999.0,-999.0,67,-99.99,,,-99.99,,2013-07-27 05:32:00,
2013-07-26 22:43:00,60.0,50.0,-100.00,North,-999,-999.0,-999.0,69,-99.99,,,-99.99,,2013-07-27 05:43:00,
2013-07-26 22:52:00,60.0,50.0,-100.00,North,-999,-999.0,-999.0,69,-99.99,,,-99.99,,2013-07-27 05:52:00,
2013-07-26 23:22:00,59.0,49.0,-100.00,North,-999,-999.0,-999.0,70,-99.99,,,-99.99,,2013-07-27 06:22:00,
2013-07-26 23:43:00,57.0,48.0,-100.00,North,-999,-999.0,-999.0,70,-99.99,,,-99.99,,2013-07-27 06:43:00,
2013-07-26 23:52:00,57.0,48.0,-100.00,North,-999,-999.0,-999.0,70,-99.99,,,-99.99,,2013-07-27 06:52:00,